SB KEPS @ AMSAT $ORB07256.O Orbital Elements 07256.OSCAR
HR AMSAT ORBITAL ELEMENTS FOR OSCAR SATELLITES FROM WA5QGD FORT WORTH,TX September 13, 2007 Send Subscribe/unsubscribe to KEPS at http://www.amsat.org/mailman/listinfo/keps BID: ORB07256.O TO ALL RADIO AMATEURS BT
Satellite: AO-07 Catalog number: 07530 Epoch time: 07255.68925116 Element set: 0976 Inclination: 101.5084 deg RA of node: 291.1020 deg Eccentricity: 0.0012201 Arg of perigee: 084.8921 deg Mean anomaly: 275.3533 deg Mean motion: 12.53572397 rev/day Decay rate: -2.8e-07 rev/day^2 Epoch rev: 50208 Checksum: 282
Satellite: AO-10 Catalog number: 14129 Epoch time: 07254.51196106 Element set: 423 Inclination: 026.1603 deg RA of node: 256.9509 deg Eccentricity: 0.6062531 Arg of perigee: 055.2477 deg Mean anomaly: 347.9262 deg Mean motion: 02.05870191 rev/day Decay rate: -1.17e-06 rev/day^2 Epoch rev: 18234 Checksum: 285
Satellite: UO-11 Catalog number: 14781 Epoch time: 07255.83662694 Element set: 0470 Inclination: 098.1872 deg RA of node: 280.2136 deg Eccentricity: 0.0008008 Arg of perigee: 247.5358 deg Mean anomaly: 112.5043 deg Mean motion: 14.79577951 rev/day Decay rate: 8.4e-07 rev/day^2 Epoch rev: 26269 Checksum: 323
Satellite: RS-15 Catalog number: 23439 Epoch time: 07255.96503892 Element set: 0079 Inclination: 064.8130 deg RA of node: 224.9637 deg Eccentricity: 0.0156819 Arg of perigee: 175.0851 deg Mean anomaly: 185.1652 deg Mean motion: 11.27552794 rev/day Decay rate: -3.9e-07 rev/day^2 Epoch rev: 52359 Checksum: 335
Satellite: FO-29 Catalog number: 24278 Epoch time: 07256.79887779 Element set: 592 Inclination: 098.5592 deg RA of node: 204.5803 deg Eccentricity: 0.0350220 Arg of perigee: 213.5802 deg Mean anomaly: 144.2704 deg Mean motion: 13.52931942 rev/day Decay rate: 6.4e-07 rev/day^2 Epoch rev: 54688 Checksum: 338
Satellite: SO-33 Catalog number: 25509 Epoch time: 07255.92105338 Element set: 0020 Inclination: 031.4281 deg RA of node: 089.7028 deg Eccentricity: 0.0354781 Arg of perigee: 114.4514 deg Mean anomaly: 249.3539 deg Mean motion: 14.28175041 rev/day Decay rate: 1.76e-06 rev/day^2 Epoch rev: 46380 Checksum: 293
Satellite: AO-40 Catalog number: 26609 Epoch time: 07256.72046862 Element set: 936 Inclination: 006.4825 deg RA of node: 120.9209 deg Eccentricity: 0.7955119 Arg of perigee: 003.3720 deg Mean anomaly: 000.1686 deg Mean motion: 01.25586373 rev/day Decay rate: -1.37e-06 rev/day^2 Epoch rev: 3155 Checksum: 297
Satellite: VO-52 Catalog number: 28650 Epoch time: 07256.32630407 Element set: 726 Inclination: 097.8256 deg RA of node: 325.0410 deg Eccentricity: 0.0026585 Arg of perigee: 328.7681 deg Mean anomaly: 031.1924 deg Mean motion: 14.81355526 rev/day Decay rate: -4.1e-07 rev/day^2 Epoch rev: 12746 Checksum: 298
Satellite: PO-63 Catalog number: 29712 Epoch time: 07256.75808087 Element set: 727 Inclination: 097.9143 deg RA of node: 314.6606 deg Eccentricity: 0.0013754 Arg of perigee: 197.4078 deg Mean anomaly: 162.6656 deg Mean motion: 14.79822266 rev/day Decay rate: 4.86e-06 rev/day^2 Epoch rev: 3643 Checksum: 347
/EX SB KEPS @ AMSAT $ORB07256.D Orbital Elements 07256.MICROS
HR AMSAT ORBITAL ELEMENTS FOR THE MICROSATS FROM WA5QGD FORT WORTH,TX September 13, 2007 Send Subscribe/unsubscribe to KEPS at http://www.amsat.org/mailman/listinfo/keps BID: ORB07256.D TO ALL RADIO AMATEURS BT
Satellite: AO-16 Catalog number: 20439 Epoch time: 07255.58560014 Element set: 0129 Inclination: 098.2032 deg RA of node: 245.3546 deg Eccentricity: 0.0010139 Arg of perigee: 290.5785 deg Mean anomaly: 069.4306 deg Mean motion: 14.31769877 rev/day Decay rate: 1.8e-07 rev/day^2 Epoch rev: 92105 Checksum: 306
Satellite: LO-19 Catalog number: 20442 Epoch time: 07255.88891510 Element set: 0055 Inclination: 098.1849 deg RA of node: 254.8620 deg Eccentricity: 0.0011053 Arg of perigee: 287.3133 deg Mean anomaly: 072.6803 deg Mean motion: 14.32010063 rev/day Decay rate: 6.6e-07 rev/day^2 Epoch rev: 92124 Checksum: 281
Satellite: AO-27 Catalog number: 22825 Epoch time: 07255.84903795 Element set: 0777 Inclination: 098.3402 deg RA of node: 221.9502 deg Eccentricity: 0.0008859 Arg of perigee: 009.6184 deg Mean anomaly: 350.5160 deg Mean motion: 14.29217181 rev/day Decay rate: -2.0e-08 rev/day^2 Epoch rev: 72801 Checksum: 307
Satellite: IO-26 Catalog number: 22826 Epoch time: 07255.46128104 Element set: 0479 Inclination: 098.3341 deg RA of node: 222.6130 deg Eccentricity: 0.0009389 Arg of perigee: 007.0204 deg Mean anomaly: 353.1105 deg Mean motion: 14.29463819 rev/day Decay rate: -.00000000 rev/day^2 Epoch rev: 72804 Checksum: 269
Satellite: PO-28 Catalog number: 22829 Epoch time: 07256.49393747 Element set: 752 Inclination: 098.3230 deg RA of node: 224.7554 deg Eccentricity: 0.0009569 Arg of perigee: 337.4888 deg Mean anomaly: 022.5872 deg Mean motion: 14.30166105 rev/day Decay rate: 8.0e-07 rev/day^2 Epoch rev: 72843 Checksum: 333
Satellite: GO-32 Catalog number: 25397 Epoch time: 07256.25580072 Element set: 400 Inclination: 098.4072 deg RA of node: 299.5806 deg Eccentricity: 0.0001207 Arg of perigee: 017.1200 deg Mean anomaly: 343.0021 deg Mean motion: 14.23129916 rev/day Decay rate: -1.17e-06 rev/day^2 Epoch rev: 47668 Checksum: 276
Satellite: MO-46 Catalog number: 26548 Epoch time: 07256.37869184 Element set: 895 Inclination: 064.5560 deg RA of node: 269.8274 deg Eccentricity: 0.0004640 Arg of perigee: 186.6266 deg Mean anomaly: 173.4771 deg Mean motion: 14.83172654 rev/day Decay rate: 9.4e-07 rev/day^2 Epoch rev: 37661 Checksum: 354
Satellite: NO-44 Catalog number: 26931 Epoch time: 07256.59512055 Element set: 684 Inclination: 067.0507 deg RA of node: 279.7542 deg Eccentricity: 0.0006878 Arg of perigee: 251.1138 deg Mean anomaly: 108.9237 deg Mean motion: 14.29494381 rev/day Decay rate: -1.22e-06 rev/day^2 Epoch rev: 31073 Checksum: 315
Satellite: SO-50 Catalog number: 27607 Epoch time: 07255.26311855 Element set: 0408 Inclination: 064.5581 deg RA of node: 180.6490 deg Eccentricity: 0.0064713 Arg of perigee: 337.6795 deg Mean anomaly: 022.1499 deg Mean motion: 14.71284702 rev/day Decay rate: 5.0e-08 rev/day^2 Epoch rev: 25393 Checksum: 309
Satellite: CO-55 Catalog number: 27844 Epoch time: 07255.65662367 Element set: 0119 Inclination: 098.7212 deg RA of node: 262.7693 deg Eccentricity: 0.0009322 Arg of perigee: 195.0590 deg Mean anomaly: 165.0295 deg Mean motion: 14.20530704 rev/day Decay rate: 3.5e-07 rev/day^2 Epoch rev: 21789 Checksum: 315
Satellite: CO-57 Catalog number: 27848 Epoch time: 07255.54752809 Element set: 0078 Inclination: 098.7200 deg RA of node: 261.8266 deg Eccentricity: 0.0009167 Arg of perigee: 199.6494 deg Mean anomaly: 160.4326 deg Mean motion: 14.20347556 rev/day Decay rate: 4.2e-07 rev/day^2 Epoch rev: 21785 Checksum: 336
Satellite: AO-51 Catalog number: 28375 Epoch time: 07255.59800407 Element set: 0911 Inclination: 098.1062 deg RA of node: 290.3837 deg Eccentricity: 0.0083358 Arg of perigee: 278.3163 deg Mean anomaly: 080.8588 deg Mean motion: 14.40579069 rev/day Decay rate: -.00000000 rev/day^2 Epoch rev: 16829 Checksum: 321
Satellite: CO-56 Catalog number: 28941 Epoch time: 07255.69982411 Element set: 0564 Inclination: 098.1209 deg RA of node: 326.7131 deg Eccentricity: 0.0213370 Arg of perigee: 322.6322 deg Mean anomaly: 036.0209 deg Mean motion: 15.43121932 rev/day Decay rate: 1.1241e-04 rev/day^2 Epoch rev: 08691 Checksum: 289
Satellite: HO-59 Catalog number: 29484 Epoch time: 07256.68974924 Element set: 678 Inclination: 098.2721 deg RA of node: 320.3057 deg Eccentricity: 0.0183256 Arg of perigee: 307.1041 deg Mean anomaly: 051.3508 deg Mean motion: 15.57765121 rev/day Decay rate: 2.3949e-04 rev/day^2 Epoch rev: 5482 Checksum: 337
Satellite: NO-60 Catalog number: 29661 Epoch time: 07150.05824307 Element set: 300 Inclination: 051.6186 deg RA of node: 176.5045 deg Eccentricity: 0.0007204 Arg of perigee: 190.7749 deg Mean anomaly: 188.7342 deg Mean motion: 16.52052832 rev/day Decay rate: 1.3324117e-01 rev/day^2 Epoch rev: 2554 Checksum: 290
Satellite: NO-61 Catalog number: 29664 Epoch time: 07256.72622471 Element set: 468 Inclination: 051.6312 deg RA of node: 343.6754 deg Eccentricity: 0.0011130 Arg of perigee: 339.4835 deg Mean anomaly: 020.5724 deg Mean motion: 15.98083528 rev/day Decay rate: 4.2311e-04 rev/day^2 Epoch rev: 4228 Checksum: 298
Satellite: CP4 Catalog number: 31122 Epoch time: 07255.73070230 Element set: 0136 Inclination: 098.0793 deg RA of node: 326.1492 deg Eccentricity: 0.0087122 Arg of perigee: 113.7883 deg Mean anomaly: 247.2446 deg Mean motion: 14.55032226 rev/day Decay rate: 5.51e-06 rev/day^2 Epoch rev: 02158 Checksum: 273
Satellite: CP3 Catalog number: 31128 Epoch time: 07255.70970155 Element set: 0128 Inclination: 098.0767 deg RA of node: 325.3924 deg Eccentricity: 0.0104099 Arg of perigee: 115.3452 deg Mean anomaly: 245.8574 deg Mean motion: 14.51863596 rev/day Decay rate: -4.6e-07 rev/day^2 Epoch rev: 02152 Checksum: 305
Satellite: LIBERT Catalog number: 31129 Epoch time: 07255.76969784 Element set: 0363 Inclination: 098.0761 deg RA of node: 325.4625 deg Eccentricity: 0.0103225 Arg of perigee: 115.2325 deg Mean anomaly: 245.9609 deg Mean motion: 14.51956576 rev/day Decay rate: 3.39e-06 rev/day^2 Epoch rev: 02151 Checksum: 310
/EX SB KEPS @ AMSAT $ORB07256.W Orbital Elements 07256.WEATHER
HR AMSAT ORBITAL ELEMENTS FOR WEATHER SATELLITES FROM WA5QGD FORT WORTH,TX September 13, 2007 Send Subscribe/unsubscribe to KEPS at http://www.amsat.org/mailman/listinfo/keps BID: ORB07256.W TO ALL RADIO AMATEURS BT
Satellite: NOAA-10 Catalog number: 16969 Epoch time: 07255.64841487 Element set: 0809 Inclination: 098.7443 deg RA of node: 272.8786 deg Eccentricity: 0.0011544 Arg of perigee: 275.1034 deg Mean anomaly: 084.8834 deg Mean motion: 14.27333796 rev/day Decay rate: 8.3e-07 rev/day^2 Epoch rev: 09170 Checksum: 341
